Hourly Data Report for October 09, 2014

All times are specified in Local Standard Time (LST). Add 1 hour to adjust for Daylight Saving Time where and when it is observed.

CAPE DORSET A
NUNAVUT

64°13'49.000" N
76°31'30.000" W
48.20 m
2400637
71366
YTE

Download Data

Hourly Data (October 2014)
Hourly Data Report for October 9, 2014
Temp Definition
°C
Dew Point Temp Definition
°C
Rel Hum Definition
%
Wind Dir Definition
10's deg

Wind Spd Definition
km/h
Visibility Definition
km
Stn Press Definition
kPa
Hmdx Definition


Wind Chill Definition


Weather Definition


TIME
00:00 Legend Double Dagger -0.8 -2.2 90 5 22 16.1 100.97   -7 LegendNANA
01:00 Legend Double Dagger -1.1 -2.5 90 5 26 16.1 100.97   -7 LegendNANA
02:00 Legend Double Dagger -1.7 -2.5 94 5 22 16.1 100.95   -8 LegendNANA
03:00 Legend Double Dagger -1.6 -2.6 93 4 17 16.1 100.95   -7 LegendNANA
04:00 Legend Double Dagger -1.7 -3.3 89 5 30 16.1 100.93   -9 LegendNANA
05:00 Legend Double Dagger -1.9 -3.3 90 4 15 16.1 100.94   -7 LegendNANA
06:00 Legend Double Dagger -2.1 -3.8 88 1 22 16.1 100.95   -8 LegendNANA
07:00 Legend Double Dagger -2.1 -4.3 85 1 22 16.1 100.92   -8 LegendNANA
08:00 Legend Double Dagger -1.7 -4.2 83 2 22 16.1 100.91   -8 LegendNANA
09:00 Legend Double Dagger -1.5 -4.3 81 2 26 16.1 100.87   -8 LegendNANA
10:00 Legend Double Dagger -1.6 -4.9 78 2 24 16.1 100.82   -8 LegendNANA
11:00 Legend Double Dagger -1.3 -4.9 77 1 24 16.1 100.78   -7 LegendNANA
12:00 Legend Double Dagger -1.0 -4.8 75 1 30 16.1 100.74   -8 LegendNANA
13:00 Legend Double Dagger -1.3 -4.9 76 1 24 16.1 100.70   -7 LegendNANA
14:00 Legend Double Dagger -1.4 -5.1 76 1 21 16.1 100.66   -7 LegendNANA
15:00 Legend Double Dagger -2.0 -5.7 76 3 26 16.1 100.61   -9 LegendNANA
16:00 Legend Double Dagger -2.7 -6.0 78 1 28 16.1 100.57   -10 LegendNANA
17:00 Legend Double Dagger -2.8 -5.8 80 1 24 16.1 100.49   -9 LegendNANA
18:00 Legend Double Dagger -2.8 -6.1 78 1 22 16.1 100.45   -9 LegendNANA
19:00 Legend Double Dagger -2.7 -6.5 75 34 22 16.1 100.39   -9 LegendNANA
20:00 Legend Double Dagger -3.5 -7.5 74 34 22 16.1 100.33   -10 LegendNANA
21:00 Legend Double Dagger -3.7 -8.0 72 33 22 16.1 100.20   -10 LegendNANA
22:00 Legend Double Dagger -4.1 -9.4 67 34 24 16.1 100.08   -11 LegendNANA
23:00 Legend Double Dagger -3.9 -7.6 76 32 21 16.1 99.92   -10 Snow

Notes on Data Quality.

Legend

  • E = Estimated
  • M = Missing
  • NA = Not Available
  • ‡ = Partner data that is not subject to review by the National Climate Archives
Date modified: